Stündliche Wetter Czyzew

Heute, 21 Oktober, Mittwoch

Zeit Temperatur Niederschläge Wind Luftdruck Luftfeuchtigkeit
00:00 +8°C° 0 mm 5 m/S 751 mmHg 69%
01:00 +8°C° 0 mm 5 m/S 751 mmHg 67%
02:00 +8°C° 0 mm 5 m/S 751 mmHg 67%
03:00 +9°C° 0 mm 5 m/S 750 mmHg 67%
04:00 +9°C° 0 mm 5 m/S 750 mmHg 68%
05:00 +9°C° 0 mm 5 m/S 750 mmHg 68%
06:00 +9°C° 0 mm 5 m/S 750 mmHg 68%
07:00 +9°C° 0 mm 5 m/S 750 mmHg 69%
08:00 +10°C° 0 mm 4 m/S 750 mmHg 69%
09:00 +11°C° 0 mm 4 m/S 750 mmHg 69%
10:00 +11°C° 0 mm 4 m/S 750 mmHg 69%
11:00 +11°C° 0 mm 4 m/S 750 mmHg 69%
12:00 +11°C° 0 mm 3 m/S 750 mmHg 70%
13:00 +11°C° 0 mm 3 m/S 750 mmHg 70%
14:00 +11°C° 0 mm 3 m/S 750 mmHg 70%
15:00 +12°C° 0 mm 3 m/S 749 mmHg 70%
16:00 +12°C° 0 mm 3 m/S 749 mmHg 70%
17:00 +11°C° 0 mm 3 m/S 749 mmHg 73%
18:00 +11°C° 0 mm 3 m/S 749 mmHg 76%
19:00 +10°C° 0 mm 3 m/S 749 mmHg 78%
20:00 +10°C° 0 mm 3 m/S 749 mmHg 78%
21:00 +10°C° 0 mm 4 m/S 749 mmHg 78%
22:00 +10°C° 0 mm 4 m/S 749 mmHg 78%
23:00 +10°C° 0 mm 4 m/S 749 mmHg 77%

Morgen, 22 Oktober, Donnerstag

Zeit Temperatur Niederschläge Wind Luftdruck Luftfeuchtigkeit
00:00 +10°C° 0 mm 4 m/S 749 mmHg 76%
01:00 +11°C° 0 mm 4 m/S 749 mmHg 75%
02:00 +10°C° 0 mm 5 m/S 749 mmHg 75%
03:00 +10°C° 0 mm 5 m/S 749 mmHg 75%
04:00 +10°C° 0 mm 5 m/S 749 mmHg 75%
05:00 +10°C° 0 mm 5 m/S 749 mmHg 75%
06:00 +10°C° 0 mm 5 m/S 749 mmHg 74%
07:00 +10°C° 0 mm 5 m/S 750 mmHg 73%
08:00 +13°C° 0 mm 6 m/S 750 mmHg 70%
09:00 +15°C° 0 mm 6 m/S 750 mmHg 66%
10:00 +16°C° 0 mm 6 m/S 750 mmHg 63%
11:00 +17°C° 0 mm 6 m/S 750 mmHg 62%
12:00 +19°C° 0 mm 6 m/S 750 mmHg 61%
13:00 +20°C° 0 mm 5 m/S 750 mmHg 60%
14:00 +19°C° 0 mm 5 m/S 750 mmHg 64%
15:00 +18°C° 0 mm 4 m/S 750 mmHg 67%
16:00 +17°C° 0 mm 4 m/S 750 mmHg 71%
17:00 +15°C° 0 mm 4 m/S 750 mmHg 73%
18:00 +15°C° 0 mm 4 m/S 750 mmHg 76%
19:00 +14°C° 0 mm 4 m/S 750 mmHg 78%
20:00 +14°C° 0 mm 4 m/S 750 mmHg 79%
21:00 +14°C° 0 mm 4 m/S 750 mmHg 81%
22:00 +13°C° 0 mm 3 m/S 750 mmHg 82%
23:00 +13°C° 0 mm 3 m/S 750 mmHg 82%

übermorgen, 23 Oktober, Freitag

Zeit Temperatur Niederschläge Wind Luftdruck Luftfeuchtigkeit
00:00 +13°C° 0 mm 3 m/S 750 mmHg 82%
01:00 +13°C° 0 mm 4 m/S 750 mmHg 82%
02:00 +13°C° 0 mm 4 m/S 749 mmHg 81%
03:00 +13°C° 0 mm 4 m/S 749 mmHg 79%
04:00 +13°C° 0 mm 4 m/S 749 mmHg 78%
05:00 +13°C° 0 mm 4 m/S 749 mmHg 78%
06:00 +13°C° 0 mm 4 m/S 749 mmHg 79%
07:00 +14°C° 0 mm 4 m/S 748 mmHg 79%
08:00 +14°C° 0 mm 4 m/S 748 mmHg 79%
09:00 +14°C° 0 mm 4 m/S 748 mmHg 79%
10:00 +14°C° 0 mm 4 m/S 748 mmHg 78%
11:00 +15°C° 0 mm 4 m/S 748 mmHg 75%
12:00 +17°C° 0 mm 4 m/S 748 mmHg 71%
13:00 +17°C° 0 mm 5 m/S 748 mmHg 68%
14:00 +17°C° 0 mm 4 m/S 748 mmHg 71%
15:00 +17°C° 0 mm 3 m/S 748 mmHg 75%
16:00 +16°C° 0 mm 3 m/S 748 mmHg 78%
17:00 +16°C° 0 mm 3 m/S 748 mmHg 80%
18:00 +16°C° 0 mm 2 m/S 748 mmHg 81%
19:00 +15°C° 0 mm 2 m/S 748 mmHg 83%
20:00 +15°C° 0 mm 2 m/S 748 mmHg 84%
21:00 +15°C° 0 mm 2 m/S 748 mmHg 85%
22:00 +14°C° 0 mm 1 m/S 748 mmHg 87%
23:00 +14°C° 0.1 mm 2 m/S 747 mmHg 87%

24 Oktober, Samstag

Zeit Temperatur Niederschläge Wind Luftdruck Luftfeuchtigkeit
00:00 +14°C° 0.1 mm 2 m/S 747 mmHg 88%
01:00 +13°C° 0.1 mm 3 m/S 747 mmHg 89%
02:00 +13°C° 1.5 mm 3 m/S 746 mmHg 91%
03:00 +13°C° 1.5 mm 4 m/S 746 mmHg 93%
04:00 +13°C° 1.5 mm 4 m/S 746 mmHg 95%
05:00 +13°C° 0.7 mm 5 m/S 745 mmHg 92%
06:00 +13°C° 0.7 mm 5 m/S 745 mmHg 89%
07:00 +13°C° 0.7 mm 6 m/S 745 mmHg 87%
08:00 +12°C° 0.2 mm 7 m/S 745 mmHg 83%
09:00 +12°C° 0.2 mm 8 m/S 746 mmHg 79%
10:00 +13°C° 0.2 mm 9 m/S 746 mmHg 75%
11:00 +12°C° 0.2 mm 9 m/S 746 mmHg 73%
12:00 +12°C° 0.2 mm 9 m/S 747 mmHg 71%
13:00 +11°C° 0.2 mm 9 m/S 747 mmHg 69%
14:00 +11°C° 0.2 mm 9 m/S 748 mmHg 69%
15:00 +10°C° 0.2 mm 8 m/S 748 mmHg 69%
16:00 +10°C° 0.2 mm 8 m/S 749 mmHg 69%
17:00 +9°C° 0 mm 7 m/S 749 mmHg 71%
18:00 +8°C° 0 mm 7 m/S 750 mmHg 73%
19:00 +8°C° 0 mm 6 m/S 751 mmHg 75%
20:00 +7°C° 0 mm 6 m/S 751 mmHg 77%
21:00 +7°C° 0 mm 6 m/S 751 mmHg 79%
22:00 +7°C° 0 mm 6 m/S 752 mmHg 81%
23:00 +5°C° 0 mm 6 m/S 752 mmHg 82%

25 Oktober, Sonntag

Zeit Temperatur Niederschläge Wind Luftdruck Luftfeuchtigkeit
00:00 +6°C° 0 mm 5 m/S 752 mmHg 84%
01:00 +6°C° 0 mm 5 m/S 753 mmHg 85%
02:00 +5°C° 0 mm 4 m/S 753 mmHg 87%
03:00 +5°C° 0 mm 4 m/S 753 mmHg 89%
04:00 +4°C° 0 mm 3 m/S 753 mmHg 90%
05:00 +4°C° 0 mm 3 m/S 753 mmHg 90%
06:00 +4°C° 0 mm 3 m/S 753 mmHg 91%
07:00 +4°C° 0 mm 3 m/S 753 mmHg 91%
08:00 +5°C° 0 mm 3 m/S 753 mmHg 85%
09:00 +8°C° 0 mm 3 m/S 753 mmHg 78%
10:00 +9°C° 0 mm 3 m/S 754 mmHg 72%
11:00 +10°C° 0 mm 3 m/S 753 mmHg 67%
12:00 +12°C° 0 mm 2 m/S 753 mmHg 63%
13:00 +13°C° 0 mm 2 m/S 753 mmHg 58%
14:00 +12°C° 0 mm 2 m/S 753 mmHg 61%
15:00 +11°C° 0 mm 1 m/S 753 mmHg 63%
16:00 +11°C° 0 mm 1 m/S 753 mmHg 66%
17:00 +10°C° 0 mm 1 m/S 753 mmHg 68%
18:00 +8°C° 0 mm 2 m/S 753 mmHg 70%
19:00 +8°C° 0 mm 2 m/S 753 mmHg 72%
20:00 +7°C° 0 mm 2 m/S 753 mmHg 74%
21:00 +7°C° 0 mm 3 m/S 753 mmHg 75%
22:00 +7°C° 0 mm 3 m/S 753 mmHg 77%
23:00 +7°C° 0 mm 3 m/S 753 mmHg 77%

26 Oktober, Montag

Zeit Temperatur Niederschläge Wind Luftdruck Luftfeuchtigkeit
00:00 +5°C° 0 mm 3 m/S 753 mmHg 78%
01:00 +5°C° 0 mm 3 m/S 753 mmHg 79%
02:00 +5°C° 0 mm 3 m/S 752 mmHg 79%
03:00 +5°C° 0 mm 3 m/S 752 mmHg 80%
04:00 +5°C° 0 mm 3 m/S 752 mmHg 80%
05:00 +5°C° 0 mm 3 m/S 752 mmHg 80%
06:00 +5°C° 0 mm 4 m/S 752 mmHg 79%
07:00 +5°C° 0 mm 4 m/S 752 mmHg 79%
08:00 +6°C° 0 mm 4 m/S 752 mmHg 74%
09:00 +7°C° 0 mm 5 m/S 752 mmHg 68%
10:00 +9°C° 0 mm 5 m/S 752 mmHg 63%
11:00 +10°C° 0 mm 5 m/S 752 mmHg 60%
12:00 +12°C° 0 mm 5 m/S 752 mmHg 57%
13:00 +13°C° 0 mm 5 m/S 752 mmHg 54%
14:00 +12°C° 0 mm 5 m/S 751 mmHg 57%
15:00 +10°C° 0 mm 5 m/S 751 mmHg 61%
16:00 +11°C° 0 mm 4 m/S 751 mmHg 64%
17:00 +10°C° 0 mm 4 m/S 751 mmHg 67%
18:00 +8°C° 0 mm 4 m/S 751 mmHg 71%
19:00 +7°C° 0 mm 4 m/S 752 mmHg 74%
20:00 +7°C° 0 mm 4 m/S 752 mmHg 76%
21:00 +6°C° 0 mm 4 m/S 752 mmHg 78%
22:00 +7°C° 0 mm 3 m/S 752 mmHg 80%
23:00 +7°C° 0 mm 3 m/S 753 mmHg 82%

27 Oktober, Dienstag

Zeit Temperatur Niederschläge Wind Luftdruck Luftfeuchtigkeit
00:00 +5°C° 0 mm 3 m/S 753 mmHg 83%
01:00 +5°C° 0 mm 3 m/S 753 mmHg 85%
02:00 +5°C° 0 mm 3 m/S 753 mmHg 86%
03:00 +6°C° 0 mm 2 m/S 753 mmHg 87%
04:00 +5°C° 0 mm 2 m/S 753 mmHg 88%
05:00 +5°C° 0 mm 2 m/S 754 mmHg 88%
06:00 +6°C° 0 mm 2 m/S 754 mmHg 88%
07:00 +6°C° 0 mm 2 m/S 754 mmHg 88%
08:00 +7°C° 0 mm 2 m/S 754 mmHg 82%
09:00 +9°C° 0 mm 2 m/S 755 mmHg 76%
10:00 +12°C° 0 mm 2 m/S 755 mmHg 70%
11:00 +13°C° 0 mm 2 m/S 755 mmHg 68%
12:00 +14°C° 0 mm 2 m/S 755 mmHg 65%
13:00 +15°C° 0 mm 1 m/S 755 mmHg 62%
14:00 +14°C° 0 mm 1 m/S 755 mmHg 66%
15:00 +13°C° 0 mm 1 m/S 756 mmHg 71%
16:00 +12°C° 0 mm 1 m/S 756 mmHg 75%
17:00 +11°C° 0 mm 1 m/S 756 mmHg 78%
18:00 +11°C° 0 mm 1 m/S 756 mmHg 81%
19:00 +9°C° 0 mm 0 m/S 756 mmHg 83%
20:00 +9°C° 0 mm 0 m/S 757 mmHg 84%
21:00 +9°C° 0 mm 0 m/S 757 mmHg 84%
22:00 +9°C° 0 mm 0 m/S 757 mmHg 85%
23:00 +10°C° 0 mm 1 m/S 757 mmHg 86%
Mehr zeigen

Wir brauchen deine Erlaubnis

Meteoprog und unser Service Anbieter werden persönliche Daten aufbewahren, so wie Cookies, Geräte Bezeichnung oder ähnliche Technologien von deinem Gerät und Prozess, so wie Persönliche Daten Inhalte und Werbungen, genauso wie social Media und den Verkehr zu analysieren.

  • Aufbewahrung und/oder Zugang zu deiner Geräte Informationen.

    Cookies, Geräte Bezeichnung oder andere Informationen, können aufbewahrt oder Zugang zu deinem Gerät erhalten, für den Grund, der oben angegeben wird.

  • Personalisierte Werbung und Inhalte, Messungen, Einblick in das Publikum und Produkt Entwicklung.

    Werbungen und Inhalte können personalisiert werden, basierend auf ein Profil. Mehr Daten können besser personalisierte Werbungen und Inhalte hinzufügen. Werbung und Inhalte können gezeigt und gemessen werden. Einblicke über das Publikum, welche die Werbung gesehen haben und den Inhalt, können abgeleitet werden. So wie Daten können genutzt werden, um es zu verbessern oder die Benutzer Erfahrung zu verbessern das System und die Software.

Wenn du “Ich stimme zu” klickst, erlaubst du uns, die Cookies zu benutzen die Geräte Bezeichnung, den Web oder ähnliche Technologien zu benutzen. Deine Settings, können in deinem Gerät bei deinem Browser geändert werden.

Für den bestimmten Zweck, berechtigten Interessen beruhen darauf, mehr als auf den Inhalt. Du kannst mehr darüber in unseren Privaten und Cookie Politik lesen.